Time,TemperatureF,DewpointF,PressureIn,WindDirection,WindDirectionDegrees,WindSpeedMPH,WindSpeedGustMPH,Humidity,HourlyPrecipIn,Conditions,Clouds,dailyrainin,SoftwareType,DateUTC
2013-03-01 00:00:00,37.3,35.2,29.49,NW,304,0.0,0.0,92,0.00,,---,0.00,VWS V14.01,2013-03-01 05:00:00,
2013-03-01 00:05:00,37.3,35.2,29.49,NW,304,0.0,0.0,92,0.00,,---,0.00,VWS V14.01,2013-03-01 05:05:00,
2013-03-01 00:07:00,37.2,35.1,29.49,NW,304,0.0,0.0,92,0.00,,---,0.00,VWS V14.01,2013-03-01 05:07:00,
2013-03-01 00:10:00,37.2,35.1,29.49,NW,304,1.0,2.0,92,0.00,,---,0.00,VWS V14.01,2013-03-01 05:10:00,
2013-03-01 00:12:00,37.2,35.1,29.49,NW,304,0.0,1.0,92,0.00,,---,0.00,VWS V14.01,2013-03-01 05:12:00,
2013-03-01 00:15:00,37.2,35.1,29.49,NW,304,0.0,1.0,92,0.00,,---,0.00,VWS V14.01,2013-03-01 05:15:00,
2013-03-01 00:17:00,37.1,35.0,29.48,NW,304,0.0,1.0,92,0.00,,---,0.00,VWS V14.01,2013-03-01 05:17:00,
2013-03-01 00:20:00,37.1,35.0,29.49,NW,304,0.0,1.0,92,0.00,,---,0.00,VWS V14.01,2013-03-01 05:20:00,
2013-03-01 00:22:00,37.0,34.9,29.49,NW,304,0.0,2.0,92,0.00,,---,0.00,VWS V14.01,2013-03-01 05:22:00,
2013-03-01 00:25:00,37.0,34.9,29.49,NW,304,0.0,2.0,92,0.00,,---,0.00,VWS V14.01,2013-03-01 05:25:00,
2013-03-01 00:30:00,37.0,34.9,29.49,ENE,59,1.0,6.0,92,0.00,,---,0.00,VWS V14.01,2013-03-01 05:30:00,
2013-03-01 00:32:00,37.0,34.9,29.49,North,355,0.0,4.0,92,0.00,,---,0.00,VWS V14.01,2013-03-01 05:32:00,
2013-03-01 00:35:00,36.9,34.8,29.49,North,355,1.0,4.0,92,0.00,,---,0.00,VWS V14.01,2013-03-01 05:35:00,
2013-03-01 00:37:00,36.9,34.8,29.49,North,355,0.0,2.0,92,0.00,,---,0.00,VWS V14.01,2013-03-01 05:37:00,
2013-03-01 00:40:00,36.9,34.8,29.49,North,355,0.0,2.0,92,0.00,,---,0.00,VWS V14.01,2013-03-01 05:40:00,
2013-03-01 00:42:00,36.8,34.7,29.49,North,355,1.0,2.0,92,0.00,,---,0.00,VWS V14.01,2013-03-01 05:42:00,
2013-03-01 00:45:00,36.8,34.7,29.49,North,349,1.0,3.0,92,0.00,,---,0.00,VWS V14.01,2013-03-01 05:45:00,
2013-03-01 00:47:00,36.8,34.7,29.49,North,349,0.0,1.0,92,0.00,,---,0.00,VWS V14.01,2013-03-01 05:47:00,
2013-03-01 00:50:00,36.8,34.7,29.49,North,349,0.0,1.0,92,0.00,,---,0.00,VWS V14.01,2013-03-01 05:50:00,
2013-03-01 00:52:00,36.7,34.6,29.49,North,349,0.0,2.0,92,0.00,,---,0.00,VWS V14.01,2013-03-01 05:52:00,
2013-03-01 00:55:00,36.8,34.7,29.49,North,349,0.0,2.0,92,0.00,,---,0.00,VWS V14.01,2013-03-01 05:55:00,
2013-03-01 00:57:00,36.7,34.6,29.49,North,349,0.0,1.0,92,0.00,,---,0.00,VWS V14.01,2013-03-01 05:57:00,
2013-03-01 01:00:00,36.7,34.6,29.49,North,349,0.0,1.0,92,0.00,,---,0.00,VWS V14.01,2013-03-01 06:00:00,
2013-03-01 01:02:00,36.7,34.6,29.49,North,349,0.0,0.0,92,0.00,,---,0.00,VWS V14.01,2013-03-01 06:02:00,
2013-03-01 01:05:00,36.6,34.5,29.49,North,349,0.0,0.0,92,0.00,,---,0.00,VWS V14.01,2013-03-01 06:05:00,
2013-03-01 01:07:00,36.6,34.5,29.49,NW,308,0.0,3.0,92,0.00,,---,0.00,VWS V14.01,2013-03-01 06:07:00,
2013-03-01 01:10:00,36.6,34.5,29.49,NW,308,2.0,3.0,92,0.00,,---,0.00,VWS V14.01,2013-03-01 06:10:00,
2013-03-01 01:13:00,36.5,34.4,29.49,NW,308,0.0,2.0,92,0.00,,---,0.00,VWS V14.01,2013-03-01 06:13:00,
2013-03-01 01:15:00,36.5,34.4,29.49,NW,308,0.0,2.0,92,0.00,,---,0.00,VWS V14.01,2013-03-01 06:15:00,
2013-03-01 01:18:00,36.5,34.4,29.49,NW,309,0.0,2.0,92,0.00,,---,0.00,VWS V14.01,2013-03-01 06:18:00,
2013-03-01 01:20:00,36.5,34.4,29.49,NW,309,0.0,2.0,92,0.00,,---,0.00,VWS V14.01,2013-03-01 06:20:00,
2013-03-01 01:25:00,36.4,34.3,29.49,NW,309,0.0,1.0,92,0.00,,---,0.00,VWS V14.01,2013-03-01 06:25:00,
2013-03-01 01:28:00,36.3,34.2,29.49,NNW,344,0.0,4.0,92,0.00,,---,0.00,VWS V14.01,2013-03-01 06:28:00,
2013-03-01 01:30:00,36.3,34.2,29.49,NNW,344,0.0,4.0,92,0.00,,---,0.00,VWS V14.01,2013-03-01 06:30:00,
2013-03-01 01:33:00,36.2,33.8,29.49,NNW,344,0.0,1.0,91,0.00,,---,0.00,VWS V14.01,2013-03-01 06:33:00,
2013-03-01 01:35:00,36.2,33.8,29.49,NNW,344,0.0,1.0,91,0.00,,---,0.00,VWS V14.01,2013-03-01 06:35:00,
2013-03-01 01:38:00,36.1,33.7,29.49,NNW,342,0.0,0.0,91,0.00,,---,0.00,VWS V14.01,2013-03-01 06:38:00,
2013-03-01 01:40:00,36.2,33.8,29.49,NNW,342,0.0,2.0,91,0.00,,---,0.00,VWS V14.01,2013-03-01 06:40:00,
2013-03-01 01:43:00,36.1,33.7,29.49,NNW,342,0.0,0.0,91,0.00,,---,0.00,VWS V14.01,2013-03-01 06:43:00,
2013-03-01 01:45:00,36.1,33.7,29.49,NNW,342,0.0,0.0,91,0.00,,---,0.00,VWS V14.01,2013-03-01 06:45:00,
2013-03-01 01:48:00,36.1,33.7,29.49,NW,325,0.0,0.0,91,0.00,,---,0.00,VWS V14.01,2013-03-01 06:48:00,
2013-03-01 01:50:00,36.1,33.7,29.49,NW,325,0.0,2.0,91,0.00,,---,0.00,VWS V14.01,2013-03-01 06:50:00,
2013-03-01 01:53:00,36.0,33.4,29.49,NNW,344,0.0,0.0,90,0.00,,---,0.00,VWS V14.01,2013-03-01 06:53:00,
2013-03-01 01:55:00,36.0,33.6,29.49,NNW,344,0.0,2.0,91,0.00,,---,0.00,VWS V14.01,2013-03-01 06:55:00,
2013-03-01 01:58:00,36.0,33.4,29.49,NNW,344,0.0,0.0,90,0.00,,---,0.00,VWS V14.01,2013-03-01 06:58:00,
2013-03-01 02:00:00,36.0,33.4,29.49,NNW,344,0.0,0.0,90,0.00,,---,0.00,VWS V14.01,2013-03-01 07:00:00,
2013-03-01 02:03:00,35.9,33.3,29.49,NNW,344,0.0,1.0,90,0.00,,---,0.00,VWS V14.01,2013-03-01 07:03:00,
2013-03-01 02:05:00,35.9,33.3,29.49,NNW,344,1.0,1.0,90,0.00,,---,0.00,VWS V14.01,2013-03-01 07:05:00,
2013-03-01 02:08:00,35.9,33.3,29.49,NNW,344,0.0,0.0,90,0.00,,---,0.00,VWS V14.01,2013-03-01 07:08:00,
2013-03-01 02:10:00,35.9,33.3,29.49,NNW,344,0.0,1.0,90,0.00,,---,0.00,VWS V14.01,2013-03-01 07:10:00,
2013-03-01 02:13:00,35.8,33.2,29.49,NNW,344,0.0,0.0,90,0.00,,---,0.00,VWS V14.01,2013-03-01 07:13:00,
2013-03-01 02:15:00,35.9,33.3,29.49,NNW,344,0.0,1.0,90,0.00,,---,0.00,VWS V14.01,2013-03-01 07:15:00,
2013-03-01 02:18:00,35.7,33.3,29.49,NNW,344,0.0,0.0,91,0.00,,---,0.00,VWS V14.01,2013-03-01 07:18:00,
2013-03-01 02:20:00,35.8,33.4,29.49,NNW,344,0.0,1.0,91,0.00,,---,0.00,VWS V14.01,2013-03-01 07:20:00,
2013-03-01 02:24:00,35.7,33.3,29.49,NNW,344,0.0,0.0,91,0.00,,---,0.00,VWS V14.01,2013-03-01 07:24:00,
2013-03-01 02:25:00,35.7,33.3,29.49,NNW,344,0.0,0.0,91,0.00,,---,0.00,VWS V14.01,2013-03-01 07:25:00,
2013-03-01 02:30:00,35.7,33.3,29.49,NNW,344,0.0,0.0,91,0.00,,---,0.00,VWS V14.01,2013-03-01 07:30:00,
2013-03-01 02:34:00,35.6,33.2,29.49,NNW,344,0.0,0.0,91,0.00,,---,0.00,VWS V14.01,2013-03-01 07:34:00,
2013-03-01 02:35:00,35.6,33.2,29.49,NNW,344,0.0,0.0,91,0.00,,---,0.00,VWS V14.01,2013-03-01 07:35:00,
2013-03-01 02:39:00,35.6,33.2,29.49,NNW,344,0.0,0.0,91,0.00,,---,0.00,VWS V14.01,2013-03-01 07:39:00,
2013-03-01 02:40:00,35.6,33.2,29.49,NNW,344,0.0,1.0,91,0.00,,---,0.00,VWS V14.01,2013-03-01 07:40:00,
2013-03-01 02:44:00,35.6,33.2,29.49,NNW,344,0.0,0.0,91,0.00,,---,0.00,VWS V14.01,2013-03-01 07:44:00,
2013-03-01 02:45:00,35.6,33.2,29.49,NNW,344,0.0,1.0,91,0.00,,---,0.00,VWS V14.01,2013-03-01 07:45:00,
2013-03-01 02:49:00,35.6,33.2,29.49,NNW,344,0.0,0.0,91,0.00,,---,0.00,VWS V14.01,2013-03-01 07:49:00,
2013-03-01 02:50:00,35.6,33.2,29.49,NNW,344,0.0,0.0,91,0.00,,---,0.00,VWS V14.01,2013-03-01 07:50:00,
2013-03-01 02:54:00,35.5,33.1,29.49,NNW,344,0.0,0.0,91,0.00,,---,0.00,VWS V14.01,2013-03-01 07:54:00,
2013-03-01 02:55:00,35.5,33.1,29.49,NNW,344,0.0,0.0,91,0.00,,---,0.00,VWS V14.01,2013-03-01 07:55:00,
2013-03-01 02:59:00,35.5,33.1,29.49,NNW,344,0.0,1.0,91,0.00,,---,0.00,VWS V14.01,2013-03-01 07:59:00,
2013-03-01 03:00:00,35.5,33.1,29.49,NNW,344,0.0,1.0,91,0.00,,---,0.00,VWS V14.01,2013-03-01 08:00:00,
2013-03-01 03:05:00,35.5,33.1,29.49,NNW,344,0.0,0.0,91,0.00,,---,0.00,VWS V14.01,2013-03-01 08:05:00,
2013-03-01 03:10:00,35.5,33.1,29.49,NNW,344,0.0,0.0,91,0.00,,---,0.00,VWS V14.01,2013-03-01 08:10:00,
2013-03-01 03:15:00,35.5,32.9,29.49,NNW,344,0.0,0.0,90,0.00,,---,0.00,VWS V14.01,2013-03-01 08:15:00,
2013-03-01 03:20:00,35.5,32.9,29.49,NNW,344,0.0,0.0,90,0.00,,---,0.00,VWS V14.01,2013-03-01 08:20:00,
2013-03-01 03:25:00,35.4,32.8,29.49,NNW,344,0.0,0.0,90,0.00,,---,0.00,VWS V14.01,2013-03-01 08:25:00,
2013-03-01 03:30:00,35.4,32.8,29.49,NNW,344,0.0,0.0,90,0.00,,---,0.00,VWS V14.01,2013-03-01 08:30:00,
2013-03-01 03:35:00,35.3,32.9,29.50,NNW,344,0.0,0.0,91,0.00,,---,0.00,VWS V14.01,2013-03-01 08:35:00,
2013-03-01 03:40:00,35.3,32.9,29.50,NNW,344,0.0,0.0,91,0.00,,---,0.00,VWS V14.01,2013-03-01 08:40:00,
2013-03-01 03:45:00,35.2,32.8,29.50,NNW,344,0.0,0.0,91,0.00,,---,0.00,VWS V14.01,2013-03-01 08:45:00,
2013-03-01 03:50:00,35.1,32.7,29.50,NNW,344,0.0,0.0,91,0.00,,---,0.00,VWS V14.01,2013-03-01 08:50:00,
2013-03-01 03:55:00,35.1,32.7,29.50,NNW,344,0.0,0.0,91,0.00,,---,0.00,VWS V14.01,2013-03-01 08:55:00,
2013-03-01 04:00:00,35.0,32.6,29.50,NNW,344,0.0,0.0,91,0.00,,---,0.00,VWS V14.01,2013-03-01 09:00:00,
2013-03-01 04:05:00,35.0,32.6,29.50,NNW,344,0.0,0.0,91,0.00,,---,0.00,VWS V14.01,2013-03-01 09:05:00,
2013-03-01 04:10:00,34.9,32.5,29.51,NNW,344,0.0,0.0,91,0.00,,---,0.00,VWS V14.01,2013-03-01 09:10:00,
2013-03-01 04:15:00,34.9,32.5,29.51,NNW,344,0.0,0.0,91,0.00,,---,0.00,VWS V14.01,2013-03-01 09:15:00,
2013-03-01 04:20:00,34.8,32.5,29.51,NNW,344,0.0,0.0,91,0.00,,---,0.00,VWS V14.01,2013-03-01 09:20:00,
2013-03-01 04:25:00,34.8,32.5,29.51,NNW,344,0.0,0.0,91,0.00,,---,0.00,VWS V14.01,2013-03-01 09:25:00,
2013-03-01 04:26:00,34.7,32.3,29.51,NNW,344,0.0,0.0,91,0.00,,---,0.00,VWS V14.01,2013-03-01 09:26:00,
2013-03-01 04:30:00,34.7,32.3,29.51,NNW,344,0.0,0.0,91,0.00,,---,0.00,VWS V14.01,2013-03-01 09:30:00,
2013-03-01 04:31:00,34.7,32.3,29.51,NNW,344,0.0,0.0,91,0.00,,---,0.00,VWS V14.01,2013-03-01 09:31:00,
2013-03-01 04:35:00,34.6,32.2,29.51,NNW,344,0.0,0.0,91,0.00,,---,0.00,VWS V14.01,2013-03-01 09:35:00,
2013-03-01 04:36:00,34.6,32.2,29.50,NNW,344,0.0,0.0,91,0.00,,---,0.00,VWS V14.01,2013-03-01 09:36:00,
2013-03-01 04:40:00,34.5,32.2,29.50,NNW,344,0.0,0.0,91,0.00,,---,0.00,VWS V14.01,2013-03-01 09:40:00,
2013-03-01 04:41:00,34.5,32.2,29.51,NNW,344,0.0,0.0,91,0.00,,---,0.00,VWS V14.01,2013-03-01 09:41:00,
2013-03-01 04:45:00,34.4,32.0,29.51,NNW,344,0.0,0.0,91,0.00,,---,0.00,VWS V14.01,2013-03-01 09:45:00,
2013-03-01 04:46:00,34.4,32.0,29.51,NNW,344,0.0,0.0,91,0.00,,---,0.00,VWS V14.01,2013-03-01 09:46:00,
2013-03-01 04:50:00,34.4,32.0,29.51,NNW,344,0.0,0.0,91,0.00,,---,0.00,VWS V14.01,2013-03-01 09:50:00,
2013-03-01 04:51:00,34.4,32.0,29.51,NNW,344,0.0,0.0,91,0.00,,---,0.00,VWS V14.01,2013-03-01 09:51:00,
2013-03-01 04:55:00,34.4,32.0,29.51,NNW,344,0.0,0.0,91,0.00,,---,0.00,VWS V14.01,2013-03-01 09:55:00,
2013-03-01 04:56:00,34.1,31.8,29.51,NNW,344,0.0,0.0,91,0.00,,---,0.00,VWS V14.01,2013-03-01 09:56:00,
2013-03-01 05:00:00,34.1,31.8,29.51,NNW,344,0.0,0.0,91,0.00,,---,0.00,VWS V14.01,2013-03-01 10:00:00,
2013-03-01 05:01:00,33.9,31.6,29.51,NNW,344,0.0,0.0,91,0.00,,---,0.00,VWS V14.01,2013-03-01 10:01:00,
2013-03-01 05:05:00,33.8,31.5,29.52,NNW,344,0.0,0.0,91,0.00,,---,0.00,VWS V14.01,2013-03-01 10:05:00,
2013-03-01 05:06:00,33.7,31.4,29.51,NNW,344,0.0,0.0,91,0.00,,---,0.00,VWS V14.01,2013-03-01 10:06:00,
2013-03-01 05:10:00,33.6,31.3,29.51,NNW,344,0.0,0.0,91,0.00,,---,0.00,VWS V14.01,2013-03-01 10:10:00,
2013-03-01 05:11:00,33.5,31.2,29.51,NNW,344,0.0,0.0,91,0.00,,---,0.00,VWS V14.01,2013-03-01 10:11:00,
2013-03-01 05:15:00,33.4,31.1,29.51,NNW,344,0.0,0.0,91,0.00,,---,0.00,VWS V14.01,2013-03-01 10:15:00,
2013-03-01 05:20:00,33.2,30.9,29.51,NNW,344,0.0,0.0,91,0.00,,---,0.00,VWS V14.01,2013-03-01 10:20:00,
2013-03-01 05:22:00,33.0,30.7,29.51,NNW,344,0.0,0.0,91,0.00,,---,0.00,VWS V14.01,2013-03-01 10:22:00,
2013-03-01 05:25:00,32.9,30.6,29.51,NNW,344,0.0,0.0,91,0.00,,---,0.00,VWS V14.01,2013-03-01 10:25:00,
2013-03-01 05:27:00,32.8,30.5,29.52,NNW,344,0.0,0.0,91,0.00,,---,0.00,VWS V14.01,2013-03-01 10:27:00,
2013-03-01 05:30:00,32.7,30.4,29.52,NNW,344,0.0,0.0,91,0.00,,---,0.00,VWS V14.01,2013-03-01 10:30:00,
2013-03-01 05:32:00,32.6,30.5,29.52,NNW,344,0.0,0.0,92,0.00,,---,0.00,VWS V14.01,2013-03-01 10:32:00,
2013-03-01 05:35:00,32.5,30.4,29.52,NNW,344,0.0,0.0,92,0.00,,---,0.00,VWS V14.01,2013-03-01 10:35:00,
2013-03-01 05:37:00,32.4,30.3,29.52,NNW,344,0.0,0.0,92,0.00,,---,0.00,VWS V14.01,2013-03-01 10:37:00,
2013-03-01 05:40:00,32.4,30.3,29.52,NNW,344,0.0,0.0,92,0.00,,---,0.00,VWS V14.01,2013-03-01 10:40:00,
2013-03-01 05:42:00,32.1,29.8,29.52,NNW,344,0.0,0.0,91,0.00,,---,0.00,VWS V14.01,2013-03-01 10:42:00,
2013-03-01 05:45:00,32.1,29.8,29.52,NNW,344,0.0,0.0,91,0.00,,---,0.00,VWS V14.01,2013-03-01 10:45:00,
2013-03-01 05:47:00,31.9,29.8,29.52,NNW,344,0.0,0.0,92,0.00,,---,0.00,VWS V14.01,2013-03-01 10:47:00,
2013-03-01 05:50:00,31.9,29.8,29.52,NNW,344,0.0,0.0,92,0.00,,---,0.00,VWS V14.01,2013-03-01 10:50:00,
2013-03-01 05:52:00,31.7,29.6,29.52,NNW,344,0.0,0.0,92,0.00,,---,0.00,VWS V14.01,2013-03-01 10:52:00,
2013-03-01 05:55:00,31.7,29.6,29.52,NNW,344,0.0,0.0,92,0.00,,---,0.00,VWS V14.01,2013-03-01 10:55:00,
2013-03-01 05:57:00,31.6,29.5,29.52,NNW,344,0.0,0.0,92,0.00,,---,0.00,VWS V14.01,2013-03-01 10:57:00,
2013-03-01 06:00:00,31.5,29.5,29.52,NNW,344,0.0,0.0,92,0.00,,---,0.00,VWS V14.01,2013-03-01 11:00:00,
2013-03-01 06:02:00,31.4,29.4,29.52,NNW,344,0.0,0.0,92,0.00,,---,0.00,VWS V14.01,2013-03-01 11:02:00,
2013-03-01 06:05:00,31.4,29.4,29.52,NNW,344,0.0,0.0,92,0.00,,---,0.00,VWS V14.01,2013-03-01 11:05:00,
2013-03-01 06:07:00,31.2,29.1,29.53,NNW,344,0.0,0.0,92,0.00,,---,0.00,VWS V14.01,2013-03-01 11:07:00,
2013-03-01 06:10:00,31.2,29.1,29.53,NNW,344,0.0,0.0,92,0.00,,---,0.00,VWS V14.01,2013-03-01 11:10:00,
2013-03-01 06:13:00,31.1,29.0,29.53,NNW,344,0.0,0.0,92,0.00,,---,0.00,VWS V14.01,2013-03-01 11:13:00,
2013-03-01 06:15:00,31.1,29.0,29.53,NNW,344,0.0,0.0,92,0.00,,---,0.00,VWS V14.01,2013-03-01 11:15:00,
2013-03-01 06:18:00,30.9,28.9,29.53,NNW,344,0.0,0.0,92,0.00,,---,0.00,VWS V14.01,2013-03-01 11:18:00,
2013-03-01 06:20:00,30.9,28.9,29.53,NNW,344,0.0,0.0,92,0.00,,---,0.00,VWS V14.01,2013-03-01 11:20:00,
2013-03-01 06:23:00,30.8,28.8,29.53,NNW,344,0.0,0.0,92,0.00,,---,0.00,VWS V14.01,2013-03-01 11:23:00,
2013-03-01 06:25:00,30.8,28.8,29.53,NNW,344,0.0,0.0,92,0.00,,---,0.00,VWS V14.01,2013-03-01 11:25:00,
2013-03-01 06:28:00,30.7,28.9,29.53,NNW,344,0.0,0.0,93,0.00,,---,0.00,VWS V14.01,2013-03-01 11:28:00,
2013-03-01 06:30:00,30.7,28.9,29.53,NNW,344,0.0,0.0,93,0.00,,---,0.00,VWS V14.01,2013-03-01 11:30:00,
2013-03-01 06:33:00,30.7,28.9,29.53,NNW,344,0.0,0.0,93,0.00,,---,0.00,VWS V14.01,2013-03-01 11:33:00,
2013-03-01 06:35:00,30.7,28.9,29.53,NNW,344,0.0,0.0,93,0.00,,---,0.00,VWS V14.01,2013-03-01 11:35:00,
2013-03-01 06:38:00,30.7,28.9,29.53,NNW,344,0.0,0.0,93,0.00,,---,0.00,VWS V14.01,2013-03-01 11:38:00,
2013-03-01 06:40:00,30.7,28.9,29.53,NNW,344,0.0,0.0,93,0.00,,---,0.00,VWS V14.01,2013-03-01 11:40:00,
2013-03-01 06:43:00,30.7,28.9,29.53,NNW,344,0.0,0.0,93,0.00,,---,0.00,VWS V14.01,2013-03-01 11:43:00,
2013-03-01 06:45:00,30.7,28.9,29.53,NNW,344,0.0,0.0,93,0.00,,---,0.00,VWS V14.01,2013-03-01 11:45:00,
2013-03-01 06:48:00,30.6,28.8,29.53,NNW,344,0.0,0.0,93,0.00,,---,0.00,VWS V14.01,2013-03-01 11:48:00,
2013-03-01 06:50:00,30.6,28.8,29.53,NNW,344,0.0,0.0,93,0.00,,---,0.00,VWS V14.01,2013-03-01 11:50:00,
2013-03-01 06:53:00,30.6,28.8,29.53,NNW,344,0.0,0.0,93,0.00,,---,0.00,VWS V14.01,2013-03-01 11:53:00,
2013-03-01 06:55:00,30.6,28.8,29.53,NNW,344,0.0,0.0,93,0.00,,---,0.00,VWS V14.01,2013-03-01 11:55:00,
2013-03-01 06:58:00,30.6,28.8,29.53,NNW,344,0.0,0.0,93,0.00,,---,0.00,VWS V14.01,2013-03-01 11:58:00,
2013-03-01 07:00:00,30.6,28.8,29.53,NNW,344,0.0,0.0,93,0.00,,---,0.00,VWS V14.01,2013-03-01 12:00:00,
2013-03-01 07:03:00,30.6,29.1,29.54,NNW,344,0.0,0.0,94,0.00,,---,0.00,VWS V14.01,2013-03-01 12:03:00,
2013-03-01 07:05:00,30.6,29.1,29.54,NNW,344,0.0,0.0,94,0.00,,---,0.00,VWS V14.01,2013-03-01 12:05:00,
2013-03-01 07:08:00,30.6,28.8,29.54,NNW,344,0.0,0.0,93,0.00,,---,0.00,VWS V14.01,2013-03-01 12:08:00,
2013-03-01 07:10:00,30.6,28.8,29.54,NNW,344,0.0,0.0,93,0.00,,---,0.00,VWS V14.01,2013-03-01 12:10:00,
2013-03-01 07:13:00,30.8,29.3,29.54,NNW,344,0.0,0.0,94,0.00,,---,0.00,VWS V14.01,2013-03-01 12:13:00,
2013-03-01 07:15:00,30.7,29.2,29.54,NNW,344,0.0,0.0,94,0.00,,---,0.00,VWS V14.01,2013-03-01 12:15:00,
2013-03-01 07:18:00,31.0,29.5,29.54,NNW,344,0.0,0.0,94,0.00,,---,0.00,VWS V14.01,2013-03-01 12:18:00,
2013-03-01 07:20:00,30.9,29.4,29.54,NNW,344,0.0,0.0,94,0.00,,---,0.00,VWS V14.01,2013-03-01 12:20:00,
2013-03-01 07:23:00,31.2,29.7,29.54,NNW,344,0.0,0.0,94,0.00,,---,0.00,VWS V14.01,2013-03-01 12:23:00,
2013-03-01 07:25:00,31.2,29.7,29.54,NNW,344,0.0,1.0,94,0.00,,---,0.00,VWS V14.01,2013-03-01 12:25:00,
2013-03-01 07:29:00,31.7,30.4,29.55,NNW,344,0.0,0.0,95,0.00,,---,0.00,VWS V14.01,2013-03-01 12:29:00,
2013-03-01 07:30:00,31.6,30.1,29.55,NNW,344,0.0,1.0,94,0.00,,---,0.00,VWS V14.01,2013-03-01 12:30:00,
2013-03-01 07:34:00,32.4,31.1,29.55,NNW,344,0.0,0.0,95,0.00,,---,0.00,VWS V14.01,2013-03-01 12:34:00,
2013-03-01 07:35:00,32.3,31.0,29.55,NNW,344,0.0,0.0,95,0.00,,---,0.00,VWS V14.01,2013-03-01 12:35:00,
2013-03-01 07:39:00,32.9,31.6,29.55,NNW,344,0.0,1.0,95,0.00,,---,0.00,VWS V14.01,2013-03-01 12:39:00,
2013-03-01 07:40:00,32.9,31.6,29.55,NNW,344,0.0,1.0,95,0.00,,---,0.00,VWS V14.01,2013-03-01 12:40:00,
2013-03-01 07:44:00,33.4,32.1,29.55,WSW,254,0.0,1.0,95,0.00,,---,0.00,VWS V14.01,2013-03-01 12:44:00,
2013-03-01 07:45:00,33.3,32.0,29.55,WSW,254,1.0,2.0,95,0.00,,---,0.00,VWS V14.01,2013-03-01 12:45:00,
2013-03-01 07:49:00,33.9,32.6,29.55,WSW,247,0.0,2.0,95,0.00,,---,0.00,VWS V14.01,2013-03-01 12:49:00,
2013-03-01 07:50:00,33.8,32.5,29.55,WSW,247,1.0,3.0,95,0.00,,---,0.00,VWS V14.01,2013-03-01 12:50:00,
2013-03-01 07:54:00,34.2,32.9,29.56,WSW,247,0.0,0.0,95,0.00,,---,0.00,VWS V14.01,2013-03-01 12:54:00,
2013-03-01 07:55:00,34.1,32.8,29.56,WSW,247,0.0,2.0,95,0.00,,---,0.00,VWS V14.01,2013-03-01 12:55:00,
2013-03-01 07:59:00,34.4,33.1,29.56,West,280,0.0,0.0,95,0.00,,---,0.00,VWS V14.01,2013-03-01 12:59:00,
2013-03-01 08:00:00,34.4,33.1,29.56,West,280,0.0,4.0,95,0.00,,---,0.00,VWS V14.01,2013-03-01 13:00:00,
2013-03-01 08:04:00,34.4,33.1,29.56,West,270,4.0,4.0,95,0.00,,---,0.00,VWS V14.01,2013-03-01 13:04:00,
2013-03-01 08:05:00,34.4,33.1,29.56,NW,305,0.0,5.0,95,0.00,,---,0.00,VWS V14.01,2013-03-01 13:05:00,
2013-03-01 08:09:00,34.8,33.5,29.56,West,261,0.0,1.0,95,0.00,,---,0.00,VWS V14.01,2013-03-01 13:09:00,
2013-03-01 08:10:00,34.7,33.4,29.56,West,261,0.0,6.0,95,0.00,,---,0.00,VWS V14.01,2013-03-01 13:10:00,
2013-03-01 08:14:00,34.9,33.3,29.56,WNW,292,0.0,5.0,94,0.00,,---,0.00,VWS V14.01,2013-03-01 13:14:00,
2013-03-01 08:15:00,34.9,33.6,29.56,WSW,257,1.0,5.0,95,0.00,,---,0.00,VWS V14.01,2013-03-01 13:15:00,
2013-03-01 08:19:00,35.2,33.7,29.56,West,274,0.0,1.0,94,0.00,,---,0.00,VWS V14.01,2013-03-01 13:19:00,
2013-03-01 08:20:00,35.1,33.5,29.56,West,274,1.0,5.0,94,0.00,,---,0.00,VWS V14.01,2013-03-01 13:20:00,
2013-03-01 08:24:00,35.4,33.6,29.56,NNW,344,3.0,5.0,93,0.00,,---,0.00,VWS V14.01,2013-03-01 13:24:00,
2013-03-01 08:25:00,35.3,33.5,29.56,WNW,297,3.0,5.0,93,0.00,,---,0.00,VWS V14.01,2013-03-01 13:25:00,
2013-03-01 08:29:00,35.7,33.3,29.56,WNW,291,1.0,4.0,91,0.00,,---,0.00,VWS V14.01,2013-03-01 13:29:00,
2013-03-01 08:30:00,35.6,33.2,29.56,WNW,287,4.0,6.0,91,0.00,,---,0.00,VWS V14.01,2013-03-01 13:30:00,
2013-03-01 08:34:00,36.1,33.2,29.56,WNW,298,1.0,3.0,89,0.00,,---,0.00,VWS V14.01,2013-03-01 13:34:00,
2013-03-01 08:35:00,36.0,33.1,29.56,NNW,335,2.0,7.0,89,0.00,,---,0.00,VWS V14.01,2013-03-01 13:35:00,
2013-03-01 08:39:00,36.4,33.2,29.56,NNW,332,2.0,2.0,88,0.00,,---,0.00,VWS V14.01,2013-03-01 13:39:00,
2013-03-01 08:40:00,36.3,33.1,29.56,West,279,0.0,4.0,88,0.00,,---,0.00,VWS V14.01,2013-03-01 13:40:00,
2013-03-01 08:44:00,36.6,33.1,29.56,NNE,17,1.0,1.0,87,0.00,,---,0.00,VWS V14.01,2013-03-01 13:44:00,
2013-03-01 08:45:00,36.6,33.1,29.56,NNE,17,0.0,2.0,87,0.00,,---,0.00,VWS V14.01,2013-03-01 13:45:00,
2013-03-01 08:49:00,36.8,33.0,29.56,WNW,301,3.0,4.0,86,0.00,,---,0.00,VWS V14.01,2013-03-01 13:49:00,
2013-03-01 08:50:00,36.8,33.0,29.56,NW,313,3.0,4.0,86,0.00,,---,0.00,VWS V14.01,2013-03-01 13:50:00,
2013-03-01 08:54:00,37.0,32.6,29.56,WNW,289,0.0,4.0,84,0.00,,---,0.00,VWS V14.01,2013-03-01 13:54:00,
2013-03-01 08:55:00,37.0,32.9,29.56,West,279,0.0,4.0,85,0.00,,---,0.00,VWS V14.01,2013-03-01 13:55:00,
2013-03-01 09:00:00,37.2,32.5,29.56,SSE,148,0.0,2.0,83,0.00,,---,0.00,VWS V14.01,2013-03-01 14:00:00,
2013-03-01 09:05:00,37.4,32.7,29.56,WNW,301,4.0,5.0,83,0.00,,---,0.00,VWS V14.01,2013-03-01 14:05:00,
2013-03-01 09:10:00,37.6,32.6,29.57,NW,305,1.0,4.0,82,0.00,,---,0.00,VWS V14.01,2013-03-01 14:10:00,
2013-03-01 09:15:00,37.8,32.5,29.57,NW,313,3.0,4.0,81,0.00,,---,0.00,VWS V14.01,2013-03-01 14:15:00,
2013-03-01 09:20:00,37.9,32.6,29.57,NW,317,0.0,2.0,81,0.00,,---,0.00,VWS V14.01,2013-03-01 14:20:00,
2013-03-01 09:25:00,38.0,32.7,29.57,NNW,327,3.0,3.0,81,0.00,,---,0.00,VWS V14.01,2013-03-01 14:25:00,
2013-03-01 09:30:00,38.1,32.2,29.57,West,276,2.0,2.0,79,0.00,,---,0.00,VWS V14.01,2013-03-01 14:30:00,
2013-03-01 09:35:00,38.2,32.3,29.57,West,275,1.0,1.0,79,0.00,,---,0.00,VWS V14.01,2013-03-01 14:35:00,
2013-03-01 09:40:00,38.4,32.5,29.57,NNW,338,2.0,5.0,79,0.00,,---,0.00,VWS V14.01,2013-03-01 14:40:00,
2013-03-01 09:45:00,38.5,32.2,29.57,NNW,329,0.0,2.0,78,0.00,,---,0.00,VWS V14.01,2013-03-01 14:45:00,
2013-03-01 09:50:00,38.7,32.1,29.57,NNW,327,0.0,2.0,77,0.00,,---,0.00,VWS V14.01,2013-03-01 14:50:00,
2013-03-01 09:55:00,38.8,32.2,29.57,North,5,3.0,3.0,77,0.00,,---,0.00,VWS V14.01,2013-03-01 14:55:00,
2013-03-01 10:00:00,38.9,32.6,29.57,NNW,342,0.0,2.0,78,0.00,,---,0.00,VWS V14.01,2013-03-01 15:00:00,
2013-03-01 10:05:00,39.0,32.4,29.57,NNE,12,3.0,3.0,77,0.00,,---,0.00,VWS V14.01,2013-03-01 15:05:00,
2013-03-01 10:10:00,39.2,32.3,29.56,NNW,329,3.0,3.0,76,0.00,,---,0.00,VWS V14.01,2013-03-01 15:10:00,
2013-03-01 10:15:00,39.4,32.5,29.57,NNW,331,2.0,2.0,76,0.00,,---,0.00,VWS V14.01,2013-03-01 15:15:00,
2013-03-01 10:20:00,39.5,31.9,29.57,NW,321,5.0,5.0,74,0.00,,---,0.00,VWS V14.01,2013-03-01 15:20:00,
2013-03-01 10:25:00,39.7,31.8,29.57,North,360,0.0,6.0,73,0.00,,---,0.00,VWS V14.01,2013-03-01 15:25:00,
2013-03-01 10:30:00,39.7,31.4,29.57,NNE,25,3.0,5.0,72,0.00,,---,0.00,VWS V14.01,2013-03-01 15:30:00,
2013-03-01 10:35:00,39.9,31.6,29.57,North,350,2.0,5.0,72,0.00,,---,0.00,VWS V14.01,2013-03-01 15:35:00,
2013-03-01 10:40:00,39.9,31.6,29.57,NW,322,1.0,7.0,72,0.00,,---,0.00,VWS V14.01,2013-03-01 15:40:00,
2013-03-01 10:45:00,40.0,31.7,29.57,NE,54,0.0,3.0,72,0.00,,---,0.00,VWS V14.01,2013-03-01 15:45:00,
2013-03-01 10:50:00,40.0,31.0,29.57,WNW,299,2.0,5.0,70,0.00,,---,0.00,VWS V14.01,2013-03-01 15:50:00,
2013-03-01 10:55:00,39.9,30.9,29.57,NW,304,1.0,10.0,70,0.00,,---,0.00,VWS V14.01,2013-03-01 15:55:00,
2013-03-01 10:56:00,39.9,31.3,29.57,WNW,296,2.0,5.0,71,0.00,,---,0.00,VWS V14.01,2013-03-01 15:56:00,
2013-03-01 11:00:00,39.8,31.2,29.58,WNW,297,5.0,10.0,71,0.00,,---,0.00,VWS V14.01,2013-03-01 16:00:00,
2013-03-01 11:01:00,39.8,30.8,29.57,NW,325,2.0,6.0,70,0.00,,---,0.00,VWS V14.01,2013-03-01 16:01:00,
2013-03-01 11:05:00,39.8,31.2,29.58,WNW,293,1.0,6.0,71,0.00,,---,0.00,VWS V14.01,2013-03-01 16:05:00,
2013-03-01 11:06:00,39.8,31.2,29.57,WNW,302,2.0,4.0,71,0.00,,---,0.00,VWS V14.01,2013-03-01 16:06:00,
2013-03-01 11:10:00,39.8,31.2,29.58,North,5,1.0,4.0,71,0.00,,---,0.00,VWS V14.01,2013-03-01 16:10:00,
2013-03-01 11:11:00,39.8,30.8,29.58,NW,319,1.0,4.0,70,0.00,,---,0.00,VWS V14.01,2013-03-01 16:11:00,
2013-03-01 11:15:00,39.8,30.8,29.58,NW,319,0.0,4.0,70,0.00,,---,0.00,VWS V14.01,2013-03-01 16:15:00,
2013-03-01 11:16:00,39.9,31.3,29.58,NW,319,2.0,2.0,71,0.00,,---,0.00,VWS V14.01,2013-03-01 16:16:00,
2013-03-01 11:20:00,39.8,30.8,29.58,WNW,289,2.0,4.0,70,0.00,,---,0.00,VWS V14.01,2013-03-01 16:20:00,
2013-03-01 11:21:00,39.9,30.9,29.58,WNW,296,1.0,4.0,70,0.00,,---,0.00,VWS V14.01,2013-03-01 16:21:00,
2013-03-01 11:25:00,39.8,30.8,29.58,NW,313,3.0,4.0,70,0.00,,---,0.00,VWS V14.01,2013-03-01 16:25:00,
2013-03-01 11:26:00,39.8,30.8,29.58,WSW,246,5.0,5.0,70,0.00,,---,0.00,VWS V14.01,2013-03-01 16:26:00,
2013-03-01 11:30:00,39.8,30.8,29.58,WNW,302,5.0,13.0,70,0.00,,---,0.00,VWS V14.01,2013-03-01 16:30:00,
2013-03-01 11:31:00,39.8,30.8,29.58,WNW,283,0.0,5.0,70,0.00,,---,0.00,VWS V14.01,2013-03-01 16:31:00,
2013-03-01 11:35:00,39.8,30.8,29.58,West,269,3.0,5.0,70,0.00,,---,0.00,VWS V14.01,2013-03-01 16:35:00,
2013-03-01 11:36:00,39.8,30.8,29.58,WNW,298,3.0,5.0,70,0.00,,---,0.00,VWS V14.01,2013-03-01 16:36:00,
2013-03-01 11:40:00,39.7,30.7,29.58,West,279,0.0,6.0,70,0.00,,---,0.00,VWS V14.01,2013-03-01 16:40:00,
2013-03-01 11:41:00,39.7,30.7,29.58,WNW,284,3.0,4.0,70,0.00,,---,0.00,VWS V14.01,2013-03-01 16:41:00,
2013-03-01 11:45:00,39.7,30.7,29.58,WNW,290,1.0,10.0,70,0.00,,---,0.00,VWS V14.01,2013-03-01 16:45:00,
2013-03-01 11:46:00,39.7,30.7,29.59,NW,312,2.0,5.0,70,0.00,,---,0.00,VWS V14.01,2013-03-01 16:46:00,
2013-03-01 11:50:00,39.7,30.7,29.58,WNW,297,0.0,5.0,70,0.00,,---,0.00,VWS V14.01,2013-03-01 16:50:00,
2013-03-01 11:51:00,39.7,30.7,29.58,West,271,0.0,3.0,70,0.00,,---,0.00,VWS V14.01,2013-03-01 16:51:00,
2013-03-01 11:55:00,39.7,30.7,29.58,NW,315,2.0,3.0,70,0.00,,---,0.00,VWS V14.01,2013-03-01 16:55:00,
2013-03-01 11:56:00,39.7,30.7,29.58,WNW,302,0.0,4.0,70,0.00,,---,0.00,VWS V14.01,2013-03-01 16:56:00,
2013-03-01 12:00:00,39.7,30.7,29.58,North,10,0.0,9.0,70,0.00,,---,0.00,VWS V14.01,2013-03-01 17:00:00,
2013-03-01 12:01:00,39.8,30.8,29.58,West,277,4.0,4.0,70,0.00,,---,0.00,VWS V14.01,2013-03-01 17:01:00,
2013-03-01 12:05:00,39.8,30.8,29.58,West,279,2.0,11.0,70,0.00,,---,0.00,VWS V14.01,2013-03-01 17:05:00,
2013-03-01 12:06:00,39.8,30.8,29.58,NW,313,1.0,4.0,70,0.00,,---,0.00,VWS V14.01,2013-03-01 17:06:00,
2013-03-01 12:10:00,39.8,30.8,29.58,North,355,1.0,4.0,70,0.00,,---,0.00,VWS V14.01,2013-03-01 17:10:00,
2013-03-01 12:11:00,39.8,30.8,29.58,NNW,338,2.0,6.0,70,0.00,,---,0.00,VWS V14.01,2013-03-01 17:11:00,
2013-03-01 12:15:00,39.8,30.8,29.57,WSW,251,1.0,6.0,70,0.00,,---,0.00,VWS V14.01,2013-03-01 17:15:00,
2013-03-01 12:17:00,39.8,30.8,29.58,WNW,293,0.0,5.0,70,0.00,,---,0.00,VWS V14.01,2013-03-01 17:17:00,
2013-03-01 12:20:00,39.8,30.8,29.57,WNW,284,4.0,9.0,70,0.00,,---,0.00,VWS V14.01,2013-03-01 17:20:00,
2013-03-01 12:22:00,39.8,30.5,29.57,West,276,2.0,9.0,69,0.00,,---,0.00,VWS V14.01,2013-03-01 17:22:00,
2013-03-01 12:25:00,39.8,30.5,29.57,WNW,290,4.0,9.0,69,0.00,,---,0.00,VWS V14.01,2013-03-01 17:25:00,
2013-03-01 12:27:00,39.8,30.8,29.57,West,274,2.0,9.0,70,0.00,,---,0.00,VWS V14.01,2013-03-01 17:27:00,
2013-03-01 12:30:00,39.8,30.5,29.57,WNW,292,0.0,9.0,69,0.00,,---,0.00,VWS V14.01,2013-03-01 17:30:00,
2013-03-01 12:32:00,39.9,30.9,29.57,North,360,5.0,7.0,70,0.00,,---,0.00,VWS V14.01,2013-03-01 17:32:00,
2013-03-01 12:35:00,39.9,30.9,29.57,NNW,329,1.0,9.0,70,0.00,,---,0.00,VWS V14.01,2013-03-01 17:35:00,
2013-03-01 12:37:00,39.9,30.6,29.57,WSW,253,2.0,6.0,69,0.00,,---,0.00,VWS V14.01,2013-03-01 17:37:00,
2013-03-01 12:40:00,39.9,30.6,29.57,West,265,1.0,6.0,69,0.00,,---,0.00,VWS V14.01,2013-03-01 17:40:00,
2013-03-01 12:42:00,39.9,30.6,29.57,SW,232,1.0,7.0,69,0.00,,---,0.00,VWS V14.01,2013-03-01 17:42:00,
2013-03-01 12:45:00,39.9,30.6,29.57,NW,304,2.0,7.0,69,0.00,,---,0.00,VWS V14.01,2013-03-01 17:45:00,
2013-03-01 12:47:00,39.9,30.6,29.57,NNW,340,4.0,13.0,69,0.00,,---,0.00,VWS V14.01,2013-03-01 17:47:00,
2013-03-01 12:50:00,39.9,30.6,29.57,SW,227,3.0,13.0,69,0.00,,---,0.00,VWS V14.01,2013-03-01 17:50:00,
2013-03-01 12:52:00,39.9,30.6,29.57,NNE,30,1.0,12.0,69,0.00,,---,0.00,VWS V14.01,2013-03-01 17:52:00,
2013-03-01 12:55:00,39.9,30.6,29.57,WSW,243,4.0,12.0,69,0.00,,---,0.00,VWS V14.01,2013-03-01 17:55:00,
2013-03-01 12:57:00,39.8,30.5,29.57,WNW,302,4.0,11.0,69,0.00,,---,0.00,VWS V14.01,2013-03-01 17:57:00,
2013-03-01 13:00:00,39.9,30.6,29.57,NW,318,7.0,11.0,69,0.00,,---,0.00,VWS V14.01,2013-03-01 18:00:00,
2013-03-01 13:02:00,39.9,30.6,29.57,West,261,1.0,7.0,69,0.00,,---,0.00,VWS V14.01,2013-03-01 18:02:00,
2013-03-01 13:05:00,39.8,30.5,29.57,North,5,5.0,8.0,69,0.00,,---,0.00,VWS V14.01,2013-03-01 18:05:00,
2013-03-01 13:07:00,39.8,30.5,29.57,East,97,1.0,7.0,69,0.00,,---,0.00,VWS V14.01,2013-03-01 18:07:00,
2013-03-01 13:10:00,39.8,30.5,29.57,North,10,2.0,7.0,69,0.00,,---,0.00,VWS V14.01,2013-03-01 18:10:00,
2013-03-01 13:12:00,39.8,30.5,29.57,NW,323,1.0,6.0,69,0.00,,---,0.00,VWS V14.01,2013-03-01 18:12:00,
2013-03-01 13:15:00,39.9,30.6,29.57,NW,324,2.0,6.0,69,0.00,,---,0.00,VWS V14.01,2013-03-01 18:15:00,
2013-03-01 13:17:00,39.9,30.6,29.57,NW,319,4.0,6.0,69,0.00,,---,0.00,VWS V14.01,2013-03-01 18:17:00,
2013-03-01 13:20:00,39.9,30.6,29.57,NW,326,2.0,6.0,69,0.00,,---,0.00,VWS V14.01,2013-03-01 18:20:00,
2013-03-01 13:22:00,39.8,30.5,29.57,West,275,0.0,3.0,69,0.00,,---,0.00,VWS V14.01,2013-03-01 18:22:00,
2013-03-01 13:25:00,39.8,30.5,29.57,West,276,2.0,3.0,69,0.00,,---,0.00,VWS V14.01,2013-03-01 18:25:00,
2013-03-01 13:27:00,39.8,30.5,29.57,West,273,0.0,9.0,69,0.00,,---,0.00,VWS V14.01,2013-03-01 18:27:00,
2013-03-01 13:30:00,39.8,30.1,29.57,West,275,1.0,9.0,68,0.00,,---,0.00,VWS V14.01,2013-03-01 18:30:00,
2013-03-01 13:32:00,39.7,30.0,29.57,North,360,0.0,6.0,68,0.00,,---,0.00,VWS V14.01,2013-03-01 18:32:00,
2013-03-01 13:35:00,39.7,30.0,29.57,North,360,0.0,6.0,68,0.00,,---,0.00,VWS V14.01,2013-03-01 18:35:00,
2013-03-01 13:37:00,39.7,30.0,29.57,NW,311,1.0,11.0,68,0.00,,---,0.00,VWS V14.01,2013-03-01 18:37:00,
2013-03-01 13:40:00,39.7,30.4,29.57,NW,311,0.0,11.0,69,0.00,,---,0.00,VWS V14.01,2013-03-01 18:40:00,
2013-03-01 13:42:00,39.7,30.4,29.57,North,355,4.0,6.0,69,0.00,,---,0.00,VWS V14.01,2013-03-01 18:42:00,
2013-03-01 13:45:00,39.7,30.0,29.57,NNW,327,2.0,6.0,68,0.00,,---,0.00,VWS V14.01,2013-03-01 18:45:00,
2013-03-01 13:48:00,39.6,30.3,29.57,NNE,24,5.0,6.0,69,0.00,,---,0.00,VWS V14.01,2013-03-01 18:48:00,
2013-03-01 13:50:00,39.6,30.3,29.57,NNE,31,0.0,6.0,69,0.00,,---,0.00,VWS V14.01,2013-03-01 18:50:00,
2013-03-01 13:53:00,39.6,29.9,29.57,NW,323,3.0,6.0,68,0.00,,---,0.00,VWS V14.01,2013-03-01 18:53:00,
2013-03-01 13:55:00,39.6,29.9,29.57,NNW,329,2.0,6.0,68,0.00,,---,0.00,VWS V14.01,2013-03-01 18:55:00,
2013-03-01 13:58:00,39.6,30.3,29.57,NW,312,2.0,7.0,69,0.00,,---,0.00,VWS V14.01,2013-03-01 18:58:00,
2013-03-01 14:00:00,39.6,30.3,29.57,NW,312,0.0,7.0,69,0.00,,---,0.00,VWS V14.01,2013-03-01 19:00:00,
2013-03-01 14:03:00,39.6,30.3,29.57,NNW,342,4.0,6.0,69,0.00,,---,0.00,VWS V14.01,2013-03-01 19:03:00,
2013-03-01 14:05:00,39.6,30.3,29.57,WNW,289,3.0,6.0,69,0.00,,---,0.00,VWS V14.01,2013-03-01 19:05:00,
2013-03-01 14:08:00,39.6,30.3,29.57,West,268,3.0,8.0,69,0.00,,---,0.00,VWS V14.01,2013-03-01 19:08:00,
2013-03-01 14:10:00,39.6,30.3,29.57,West,269,2.0,8.0,69,0.00,,---,0.00,VWS V14.01,2013-03-01 19:10:00,
2013-03-01 14:13:00,39.6,30.3,29.57,WNW,283,0.0,4.0,69,0.00,,---,0.00,VWS V14.01,2013-03-01 19:13:00,
2013-03-01 14:15:00,39.6,30.3,29.57,WNW,283,0.0,4.0,69,0.00,,---,0.00,VWS V14.01,2013-03-01 19:15:00,
2013-03-01 14:18:00,39.5,30.2,29.57,WNW,296,1.0,9.0,69,0.00,,---,0.00,VWS V14.01,2013-03-01 19:18:00,
2013-03-01 14:20:00,39.5,30.2,29.57,WNW,296,1.0,9.0,69,0.00,,---,0.00,VWS V14.01,2013-03-01 19:20:00,
2013-03-01 14:23:00,39.5,30.2,29.57,North,355,2.0,11.0,69,0.00,,---,0.00,VWS V14.01,2013-03-01 19:23:00,
2013-03-01 14:25:00,39.5,30.2,29.57,North,355,2.0,11.0,69,0.00,,---,0.00,VWS V14.01,2013-03-01 19:25:00,
2013-03-01 14:28:00,39.6,29.9,29.57,NNE,15,2.0,7.0,68,0.00,,---,0.00,VWS V14.01,2013-03-01 19:28:00,
2013-03-01 14:30:00,39.6,29.9,29.57,NNE,15,2.0,7.0,68,0.00,,---,0.00,VWS V14.01,2013-03-01 19:30:00,
2013-03-01 14:33:00,39.7,30.0,29.57,NW,305,2.0,7.0,68,0.00,,---,0.00,VWS V14.01,2013-03-01 19:33:00,
2013-03-01 14:35:00,39.7,30.0,29.57,NW,305,2.0,7.0,68,0.00,,---,0.00,VWS V14.01,2013-03-01 19:35:00,
2013-03-01 14:38:00,39.7,30.0,29.57,WNW,289,1.0,6.0,68,0.00,,---,0.00,VWS V14.01,2013-03-01 19:38:00,
2013-03-01 14:40:00,39.7,30.0,29.57,WNW,289,1.0,6.0,68,0.00,,---,0.00,VWS V14.01,2013-03-01 19:40:00,
2013-03-01 14:43:00,39.7,30.0,29.57,NW,306,5.0,10.0,68,0.00,,---,0.00,VWS V14.01,2013-03-01 19:43:00,
2013-03-01 14:45:00,39.7,30.0,29.57,NW,306,5.0,10.0,68,0.00,,---,0.00,VWS V14.01,2013-03-01 19:45:00,
2013-03-01 14:48:00,39.6,29.6,29.58,SW,217,1.0,10.0,67,0.00,,---,0.00,VWS V14.01,2013-03-01 19:48:00,
2013-03-01 14:50:00,39.6,29.6,29.58,SW,217,1.0,10.0,67,0.00,,---,0.00,VWS V14.01,2013-03-01 19:50:00,
2013-03-01 14:53:00,39.6,29.9,29.58,NW,306,2.0,10.0,68,0.00,,---,0.00,VWS V14.01,2013-03-01 19:53:00,
2013-03-01 14:55:00,39.6,29.9,29.58,NW,306,2.0,10.0,68,0.00,,---,0.00,VWS V14.01,2013-03-01 19:55:00,
2013-03-01 14:58:00,39.6,29.6,29.58,WNW,285,2.0,5.0,67,0.00,,---,0.00,VWS V14.01,2013-03-01 19:58:00,
2013-03-01 15:00:00,39.6,29.6,29.58,WNW,285,2.0,5.0,67,0.00,,---,0.00,VWS V14.01,2013-03-01 20:00:00,
2013-03-01 15:03:00,39.6,29.6,29.58,NW,310,2.0,6.0,67,0.00,,---,0.00,VWS V14.01,2013-03-01 20:03:00,
2013-03-01 15:05:00,39.6,29.6,29.58,NW,310,2.0,6.0,67,0.00,,---,0.00,VWS V14.01,2013-03-01 20:05:00,
2013-03-01 15:08:00,39.5,29.5,29.58,NW,306,1.0,5.0,67,0.00,,---,0.00,VWS V14.01,2013-03-01 20:08:00,
2013-03-01 15:10:00,39.5,29.5,29.58,NW,306,1.0,5.0,67,0.00,,---,0.00,VWS V14.01,2013-03-01 20:10:00,
2013-03-01 15:13:00,39.5,29.5,29.58,North,355,1.0,10.0,67,0.00,,---,0.00,VWS V14.01,2013-03-01 20:13:00,
2013-03-01 15:15:00,39.5,29.5,29.58,North,355,1.0,10.0,67,0.00,,---,0.00,VWS V14.01,2013-03-01 20:15:00,
2013-03-01 15:18:00,39.5,29.8,29.58,WNW,288,0.0,6.0,68,0.00,,---,0.00,VWS V14.01,2013-03-01 20:18:00,
2013-03-01 15:20:00,39.5,29.8,29.58,WNW,288,0.0,6.0,68,0.00,,---,0.00,VWS V14.01,2013-03-01 20:20:00,
2013-03-01 15:23:00,39.4,29.7,29.58,West,265,3.0,6.0,68,0.00,,---,0.00,VWS V14.01,2013-03-01 20:23:00,
2013-03-01 15:25:00,39.4,29.7,29.58,West,265,3.0,6.0,68,0.00,,---,0.00,VWS V14.01,2013-03-01 20:25:00,
2013-03-01 15:28:00,39.4,29.7,29.58,WNW,292,3.0,9.0,68,0.00,,---,0.00,VWS V14.01,2013-03-01 20:28:00,
2013-03-01 15:30:00,39.4,29.7,29.58,WNW,292,3.0,9.0,68,0.00,,---,0.00,VWS V14.01,2013-03-01 20:30:00,
2013-03-01 15:33:00,39.3,29.6,29.58,NNW,344,0.0,5.0,68,0.00,,---,0.00,VWS V14.01,2013-03-01 20:33:00,
2013-03-01 15:35:00,39.3,29.6,29.58,NNW,344,0.0,5.0,68,0.00,,---,0.00,VWS V14.01,2013-03-01 20:35:00,
2013-03-01 15:38:00,39.3,29.6,29.58,NNW,329,1.0,3.0,68,0.00,,---,0.00,VWS V14.01,2013-03-01 20:38:00,
2013-03-01 15:40:00,39.3,29.6,29.58,NNW,329,1.0,3.0,68,0.00,,---,0.00,VWS V14.01,2013-03-01 20:40:00,
2013-03-01 15:43:00,39.3,30.0,29.59,NW,324,0.0,0.0,69,0.00,,---,0.00,VWS V14.01,2013-03-01 20:43:00,
2013-03-01 15:45:00,39.3,30.0,29.59,NW,324,0.0,3.0,69,0.00,,---,0.00,VWS V14.01,2013-03-01 20:45:00,
2013-03-01 15:48:00,39.3,30.0,29.59,NW,325,0.0,0.0,69,0.00,,---,0.00,VWS V14.01,2013-03-01 20:48:00,
2013-03-01 15:50:00,39.3,30.0,29.59,NW,325,0.0,3.0,69,0.00,,---,0.00,VWS V14.01,2013-03-01 20:50:00,
2013-03-01 15:53:00,39.3,30.0,29.59,WSW,248,1.0,1.0,69,0.00,,---,0.00,VWS V14.01,2013-03-01 20:53:00,
2013-03-01 15:55:00,39.3,30.0,29.59,WSW,248,1.0,6.0,69,0.00,,---,0.00,VWS V14.01,2013-03-01 20:55:00,
2013-03-01 15:58:00,39.3,30.0,29.59,NW,323,0.0,0.0,69,0.00,,---,0.00,VWS V14.01,2013-03-01 20:58:00,
2013-03-01 16:00:00,39.2,29.9,29.59,NW,323,0.0,3.0,69,0.00,,---,0.00,VWS V14.01,2013-03-01 21:00:00,
2013-03-01 16:03:00,39.2,29.9,29.59,NW,311,0.0,0.0,69,0.00,,---,0.00,VWS V14.01,2013-03-01 21:03:00,
2013-03-01 16:05:00,39.2,29.9,29.59,NW,311,0.0,7.0,69,0.00,,---,0.00,VWS V14.01,2013-03-01 21:05:00,
2013-03-01 16:08:00,39.2,29.9,29.59,NE,49,4.0,4.0,69,0.00,,---,0.00,VWS V14.01,2013-03-01 21:08:00,
2013-03-01 16:10:00,39.2,29.9,29.59,NW,311,1.0,2.0,69,0.00,,---,0.00,VWS V14.01,2013-03-01 21:10:00,
2013-03-01 16:13:00,39.2,29.9,29.59,NW,307,0.0,0.0,69,0.00,,---,0.00,VWS V14.01,2013-03-01 21:13:00,
2013-03-01 16:15:00,39.2,29.9,29.59,NW,307,0.0,4.0,69,0.00,,---,0.00,VWS V14.01,2013-03-01 21:15:00,
2013-03-01 16:18:00,39.1,29.8,29.59,WNW,286,1.0,2.0,69,0.00,,---,0.00,VWS V14.01,2013-03-01 21:18:00,
2013-03-01 16:20:00,39.1,29.8,29.59,WNW,288,0.0,4.0,69,0.00,,---,0.00,VWS V14.01,2013-03-01 21:20:00,
2013-03-01 16:24:00,39.1,29.8,29.59,NW,310,1.0,5.0,69,0.00,,---,0.00,VWS V14.01,2013-03-01 21:24:00,
2013-03-01 16:25:00,39.1,29.8,29.59,WNW,286,5.0,5.0,69,0.00,,---,0.00,VWS V14.01,2013-03-01 21:25:00,
2013-03-01 16:29:00,39.1,29.8,29.59,WNW,295,2.0,2.0,69,0.00,,---,0.00,VWS V14.01,2013-03-01 21:29:00,
2013-03-01 16:30:00,39.1,29.8,29.59,NW,323,0.0,7.0,69,0.00,,---,0.00,VWS V14.01,2013-03-01 21:30:00,
2013-03-01 16:34:00,39.1,29.8,29.59,NNW,336,1.0,4.0,69,0.00,,---,0.00,VWS V14.01,2013-03-01 21:34:00,
2013-03-01 16:35:00,39.1,29.8,29.59,ENE,74,2.0,4.0,69,0.00,,---,0.00,VWS V14.01,2013-03-01 21:35:00,
2013-03-01 16:39:00,39.0,30.1,29.60,NNW,340,0.0,3.0,70,0.00,,---,0.00,VWS V14.01,2013-03-01 21:39:00,
2013-03-01 16:40:00,39.0,29.7,29.60,NNW,340,3.0,4.0,69,0.00,,---,0.00,VWS V14.01,2013-03-01 21:40:00,
2013-03-01 16:44:00,38.9,29.6,29.60,NW,314,1.0,2.0,69,0.00,,---,0.00,VWS V14.01,2013-03-01 21:44:00,
2013-03-01 16:45:00,38.9,30.0,29.60,NW,307,2.0,6.0,70,0.00,,---,0.00,VWS V14.01,2013-03-01 21:45:00,
2013-03-01 16:49:00,38.8,29.9,29.60,NNE,17,1.0,3.0,70,0.00,,---,0.00,VWS V14.01,2013-03-01 21:49:00,
2013-03-01 16:50:00,38.8,29.9,29.60,NNW,347,1.0,2.0,70,0.00,,---,0.00,VWS V14.01,2013-03-01 21:50:00,
2013-03-01 16:54:00,38.8,29.9,29.60,NNW,333,1.0,1.0,70,0.00,,---,0.00,VWS V14.01,2013-03-01 21:54:00,
2013-03-01 16:55:00,38.8,29.9,29.60,NNW,333,0.0,3.0,70,0.00,,---,0.00,VWS V14.01,2013-03-01 21:55:00,
2013-03-01 16:59:00,38.7,29.8,29.60,WNW,297,2.0,4.0,70,0.00,,---,0.00,VWS V14.01,2013-03-01 21:59:00,
2013-03-01 17:00:00,38.7,29.8,29.60,NW,315,2.0,3.0,70,0.00,,---,0.00,VWS V14.01,2013-03-01 22:00:00,
2013-03-01 17:04:00,38.6,29.7,29.60,WNW,302,0.0,2.0,70,0.00,,---,0.00,VWS V14.01,2013-03-01 22:04:00,
2013-03-01 17:05:00,38.7,29.8,29.60,WNW,286,1.0,4.0,70,0.00,,---,0.00,VWS V14.01,2013-03-01 22:05:00,
2013-03-01 17:09:00,38.6,30.0,29.60,West,276,0.0,2.0,71,0.00,,---,0.00,VWS V14.01,2013-03-01 22:09:00,
2013-03-01 17:10:00,38.6,30.0,29.61,West,270,0.0,3.0,71,0.00,,---,0.00,VWS V14.01,2013-03-01 22:10:00,
2013-03-01 17:14:00,38.4,29.8,29.60,North,11,3.0,3.0,71,0.00,,---,0.00,VWS V14.01,2013-03-01 22:14:00,
2013-03-01 17:15:00,38.5,30.3,29.61,North,5,2.0,4.0,72,0.00,,---,0.00,VWS V14.01,2013-03-01 22:15:00,
2013-03-01 17:19:00,38.4,29.8,29.61,WNW,287,0.0,4.0,71,0.00,,---,0.00,VWS V14.01,2013-03-01 22:19:00,
2013-03-01 17:20:00,38.4,29.5,29.61,NNW,341,0.0,6.0,70,0.00,,---,0.00,VWS V14.01,2013-03-01 22:20:00,
2013-03-01 17:24:00,38.4,29.5,29.61,NNW,331,1.0,1.0,70,0.00,,---,0.00,VWS V14.01,2013-03-01 22:24:00,
2013-03-01 17:25:00,38.4,29.5,29.61,NNW,342,0.0,7.0,70,0.00,,---,0.00,VWS V14.01,2013-03-01 22:25:00,
2013-03-01 17:29:00,38.4,29.5,29.61,WSW,257,1.0,3.0,70,0.00,,---,0.00,VWS V14.01,2013-03-01 22:29:00,
2013-03-01 17:30:00,38.4,29.8,29.61,WNW,290,3.0,7.0,71,0.00,,---,0.00,VWS V14.01,2013-03-01 22:30:00,
2013-03-01 17:34:00,38.3,29.4,29.61,WNW,300,2.0,2.0,70,0.00,,---,0.00,VWS V14.01,2013-03-01 22:34:00,
2013-03-01 17:35:00,38.3,29.4,29.61,NW,323,2.0,4.0,70,0.00,,---,0.00,VWS V14.01,2013-03-01 22:35:00,
2013-03-01 17:39:00,38.3,29.4,29.61,NW,306,0.0,0.0,70,0.00,,---,0.00,VWS V14.01,2013-03-01 22:39:00,
2013-03-01 17:40:00,38.3,29.4,29.61,NW,306,0.0,3.0,70,0.00,,---,0.00,VWS V14.01,2013-03-01 22:40:00,
2013-03-01 17:44:00,38.2,29.3,29.61,NNW,328,2.0,3.0,70,0.00,,---,0.00,VWS V14.01,2013-03-01 22:44:00,
2013-03-01 17:45:00,38.2,29.6,29.61,NW,319,2.0,3.0,71,0.00,,---,0.00,VWS V14.01,2013-03-01 22:45:00,
2013-03-01 17:50:00,38.2,29.3,29.61,NNW,328,0.0,0.0,70,0.00,,---,0.00,VWS V14.01,2013-03-01 22:50:00,
2013-03-01 17:55:00,38.2,29.6,29.61,NNW,339,0.0,1.0,71,0.00,,---,0.00,VWS V14.01,2013-03-01 22:55:00,
2013-03-01 18:00:00,38.1,29.2,29.61,NNW,339,0.0,1.0,70,0.00,,---,0.00,VWS V14.01,2013-03-01 23:00:00,
2013-03-01 18:05:00,38.0,29.5,29.62,NE,37,2.0,3.0,71,0.00,,---,0.00,VWS V14.01,2013-03-01 23:05:00,
2013-03-01 18:10:00,37.9,29.4,29.62,WNW,303,1.0,4.0,71,0.00,,---,0.00,VWS V14.01,2013-03-01 23:10:00,
2013-03-01 18:15:00,37.8,29.6,29.62,WNW,303,0.0,0.0,72,0.00,,---,0.00,VWS V14.01,2013-03-01 23:15:00,
2013-03-01 18:20:00,37.7,29.5,29.62,NW,309,0.0,1.0,72,0.00,,---,0.00,VWS V14.01,2013-03-01 23:20:00,
2013-03-01 18:25:00,37.6,29.7,29.62,NW,309,0.0,0.0,73,0.00,,---,0.00,VWS V14.01,2013-03-01 23:25:00,
2013-03-01 18:30:00,37.5,29.3,29.63,NW,309,2.0,2.0,72,0.00,,---,0.00,VWS V14.01,2013-03-01 23:30:00,
2013-03-01 18:35:00,37.5,29.6,29.63,NW,311,0.0,1.0,73,0.00,,---,0.00,VWS V14.01,2013-03-01 23:35:00,
2013-03-01 18:40:00,37.4,29.5,29.62,NW,306,1.0,3.0,73,0.00,,---,0.00,VWS V14.01,2013-03-01 23:40:00,
2013-03-01 18:45:00,37.5,29.3,29.62,WNW,282,0.0,2.0,72,0.00,,---,0.00,VWS V14.01,2013-03-01 23:45:00,
2013-03-01 18:50:00,37.7,29.2,29.62,WNW,289,0.0,2.0,71,0.00,,---,0.00,VWS V14.01,2013-03-01 23:50:00,
2013-03-01 18:55:00,37.8,29.3,29.62,NW,318,2.0,5.0,71,0.00,,---,0.00,VWS V14.01,2013-03-01 23:55:00,
2013-03-01 19:00:00,37.8,28.9,29.62,North,355,1.0,5.0,70,0.00,,---,0.00,VWS V14.01,2013-03-02 00:00:00,
2013-03-01 19:01:00,37.8,29.3,29.62,ENE,60,1.0,3.0,71,0.00,,---,0.00,VWS V14.01,2013-03-02 00:01:00,
2013-03-01 19:05:00,37.8,29.6,29.62,North,351,0.0,3.0,72,0.00,,---,0.00,VWS V14.01,2013-03-02 00:05:00,
2013-03-01 19:06:00,37.8,29.3,29.62,West,276,1.0,3.0,71,0.00,,---,0.00,VWS V14.01,2013-03-02 00:06:00,
2013-03-01 19:10:00,37.4,29.2,29.63,WNW,298,0.0,7.0,72,0.00,,---,0.00,VWS V14.01,2013-03-02 00:10:00,
2013-03-01 19:11:00,37.7,29.2,29.63,North,360,0.0,4.0,71,0.00,,---,0.00,VWS V14.01,2013-03-02 00:11:00,
2013-03-01 19:15:00,37.3,29.5,29.63,West,265,0.0,3.0,73,0.00,,---,0.00,VWS V14.01,2013-03-02 00:15:00,
2013-03-01 19:17:00,37.7,29.2,29.63,NW,316,4.0,4.0,71,0.00,,---,0.00,VWS V14.01,2013-03-02 00:17:00,
2013-03-01 19:20:00,37.3,29.5,29.63,West,269,0.0,3.0,73,0.00,,---,0.00,VWS V14.01,2013-03-02 00:20:00,
2013-03-01 19:22:00,37.7,29.2,29.63,NNW,332,2.0,4.0,71,0.00,,---,0.00,VWS V14.01,2013-03-02 00:22:00,
2013-03-01 19:25:00,37.2,29.4,29.63,NNW,344,0.0,6.0,73,0.00,,---,0.00,VWS V14.01,2013-03-02 00:25:00,
2013-03-01 19:30:00,37.1,29.3,29.63,NNW,342,0.0,2.0,73,0.00,,---,0.00,VWS V14.01,2013-03-02 00:30:00,
2013-03-01 19:31:00,37.7,29.2,29.63,NNW,337,1.0,4.0,71,0.00,,---,0.00,VWS V14.01,2013-03-02 00:31:00,
2013-03-01 19:35:00,37.0,29.5,29.63,NW,307,0.0,4.0,74,0.00,,---,0.00,VWS V14.01,2013-03-02 00:35:00,
2013-03-01 19:36:00,37.6,29.1,29.63,ESE,103,0.0,4.0,71,0.00,,---,0.00,VWS V14.01,2013-03-02 00:36:00,
2013-03-01 19:40:00,36.9,29.7,29.63,West,275,0.0,4.0,75,0.00,,---,0.00,VWS V14.01,2013-03-02 00:40:00,
2013-03-01 19:41:00,37.6,29.1,29.63,NW,326,0.0,8.0,71,0.00,,---,0.00,VWS V14.01,2013-03-02 00:41:00,
2013-03-01 19:45:00,36.9,29.4,29.63,NW,321,2.0,5.0,74,0.00,,---,0.00,VWS V14.01,2013-03-02 00:45:00,
2013-03-01 19:46:00,37.6,29.1,29.63,WNW,285,0.0,4.0,71,0.00,,---,0.00,VWS V14.01,2013-03-02 00:46:00,
2013-03-01 19:50:00,36.8,29.6,29.63,NW,317,0.0,6.0,75,0.00,,---,0.00,VWS V14.01,2013-03-02 00:50:00,
2013-03-01 19:51:00,37.6,29.1,29.64,North,5,0.0,3.0,71,0.00,,---,0.00,VWS V14.01,2013-03-02 00:51:00,
2013-03-01 19:55:00,36.7,29.5,29.64,WNW,292,4.0,4.0,75,0.00,,---,0.00,VWS V14.01,2013-03-02 00:55:00,
2013-03-01 19:56:00,37.6,29.4,29.63,North,5,0.0,0.0,72,0.00,,---,0.00,VWS V14.01,2013-03-02 00:56:00,
2013-03-01 20:00:00,36.7,29.5,29.63,North,5,0.0,4.0,75,0.00,,---,0.00,VWS V14.01,2013-03-02 01:00:00,
2013-03-01 20:01:00,37.5,29.3,29.63,West,279,0.0,3.0,72,0.00,,---,0.00,VWS V14.01,2013-03-02 01:01:00,
2013-03-01 20:05:00,36.6,29.4,29.63,NNW,338,0.0,5.0,75,0.00,,---,0.00,VWS V14.01,2013-03-02 01:05:00,
2013-03-01 20:06:00,37.4,29.2,29.63,WNW,289,3.0,7.0,72,0.00,,---,0.00,VWS V14.01,2013-03-02 01:06:00,
2013-03-01 20:10:00,36.6,29.4,29.63,North,355,0.0,2.0,75,0.00,,---,0.00,VWS V14.01,2013-03-02 01:10:00,
2013-03-01 20:11:00,37.3,29.1,29.63,West,266,0.0,3.0,72,0.00,,---,0.00,VWS V14.01,2013-03-02 01:11:00,
2013-03-01 20:15:00,36.6,29.4,29.63,NW,321,3.0,9.0,75,0.00,,---,0.00,VWS V14.01,2013-03-02 01:15:00,
2013-03-01 20:16:00,37.3,29.5,29.63,WNW,301,0.0,3.0,73,0.00,,---,0.00,VWS V14.01,2013-03-02 01:16:00,
2013-03-01 20:20:00,36.6,29.4,29.63,NW,316,4.0,5.0,75,0.00,,---,0.00,VWS V14.01,2013-03-02 01:20:00,
2013-03-01 20:21:00,37.2,29.4,29.63,NNW,344,1.0,6.0,73,0.00,,---,0.00,VWS V14.01,2013-03-02 01:21:00,
2013-03-01 20:25:00,36.5,29.3,29.63,NW,313,2.0,4.0,75,0.00,,---,0.00,VWS V14.01,2013-03-02 01:25:00,
2013-03-01 20:26:00,37.1,29.3,29.63,NNW,342,0.0,2.0,73,0.00,,---,0.00,VWS V14.01,2013-03-02 01:26:00,
2013-03-01 20:30:00,36.5,29.3,29.63,NNW,338,1.0,6.0,75,0.00,,---,0.00,VWS V14.01,2013-03-02 01:30:00,
2013-03-01 20:31:00,37.1,29.6,29.63,NW,310,0.0,4.0,74,0.00,,---,0.00,VWS V14.01,2013-03-02 01:31:00,
2013-03-01 20:35:00,36.5,29.3,29.63,North,360,0.0,5.0,75,0.00,,---,0.00,VWS V14.01,2013-03-02 01:35:00,
2013-03-01 20:36:00,37.0,29.5,29.63,West,275,1.0,4.0,74,0.00,,---,0.00,VWS V14.01,2013-03-02 01:36:00,
2013-03-01 20:40:00,36.5,29.3,29.63,West,273,0.0,2.0,75,0.00,,---,0.00,VWS V14.01,2013-03-02 01:40:00,
2013-03-01 20:41:00,36.9,29.4,29.63,NNE,30,1.0,5.0,74,0.00,,---,0.00,VWS V14.01,2013-03-02 01:41:00,
2013-03-01 20:45:00,36.4,29.2,29.63,West,276,0.0,3.0,75,0.00,,---,0.00,VWS V14.01,2013-03-02 01:45:00,
2013-03-01 20:46:00,36.8,29.3,29.63,NW,317,1.0,6.0,74,0.00,,---,0.00,VWS V14.01,2013-03-02 01:46:00,
2013-03-01 20:50:00,36.4,29.2,29.63,NW,309,3.0,3.0,75,0.00,,---,0.00,VWS V14.01,2013-03-02 01:50:00,
2013-03-01 20:52:00,36.7,29.5,29.64,NW,318,3.0,3.0,75,0.00,,---,0.00,VWS V14.01,2013-03-02 01:52:00,
2013-03-01 20:55:00,36.4,29.2,29.63,North,10,0.0,4.0,75,0.00,,---,0.00,VWS V14.01,2013-03-02 01:55:00,
2013-03-01 20:57:00,36.6,29.4,29.63,North,5,0.0,4.0,75,0.00,,---,0.00,VWS V14.01,2013-03-02 01:57:00,
2013-03-01 21:00:00,36.3,29.1,29.63,NNW,338,0.0,4.0,75,0.00,,---,0.00,VWS V14.01,2013-03-02 02:00:00,
2013-03-01 21:02:00,36.6,29.4,29.63,NNW,339,2.0,5.0,75,0.00,,---,0.00,VWS V14.01,2013-03-02 02:02:00,
2013-03-01 21:05:00,36.3,29.5,29.63,WNW,285,2.0,3.0,76,0.00,,---,0.00,VWS V14.01,2013-03-02 02:05:00,
2013-03-01 21:07:00,36.6,29.4,29.63,WNW,294,0.0,2.0,75,0.00,,---,0.00,VWS V14.01,2013-03-02 02:07:00,
2013-03-01 21:10:00,36.3,29.5,29.63,NNE,24,0.0,12.0,76,0.00,,---,0.00,VWS V14.01,2013-03-02 02:10:00,
2013-03-01 21:12:00,36.5,29.3,29.63,West,276,0.0,9.0,75,0.00,,---,0.00,VWS V14.01,2013-03-02 02:12:00,
2013-03-01 21:15:00,36.2,29.4,29.63,WSW,247,0.0,4.0,76,0.00,,---,0.00,VWS V14.01,2013-03-02 02:15:00,
2013-03-01 21:17:00,36.5,29.3,29.63,West,260,3.0,3.0,75,0.00,,---,0.00,VWS V14.01,2013-03-02 02:17:00,
2013-03-01 21:20:00,36.2,29.4,29.63,WNW,284,0.0,6.0,76,0.00,,---,0.00,VWS V14.01,2013-03-02 02:20:00,
2013-03-01 21:22:00,36.5,29.3,29.63,NW,313,0.0,4.0,75,0.00,,---,0.00,VWS V14.01,2013-03-02 02:22:00,
2013-03-01 21:25:00,36.1,29.3,29.63,WNW,297,0.0,4.0,76,0.00,,---,0.00,VWS V14.01,2013-03-02 02:25:00,
2013-03-01 21:27:00,36.5,29.3,29.63,North,10,1.0,6.0,75,0.00,,---,0.00,VWS V14.01,2013-03-02 02:27:00,
2013-03-01 21:30:00,36.1,29.3,29.63,WNW,298,0.0,2.0,76,0.00,,---,0.00,VWS V14.01,2013-03-02 02:30:00,
2013-03-01 21:32:00,36.5,29.3,29.63,North,5,2.0,5.0,75,0.00,,---,0.00,VWS V14.01,2013-03-02 02:32:00,
2013-03-01 21:35:00,36.1,29.3,29.63,NNW,328,0.0,3.0,76,0.00,,---,0.00,VWS V14.01,2013-03-02 02:35:00,
2013-03-01 21:37:00,36.5,29.3,29.63,North,355,0.0,2.0,75,0.00,,---,0.00,VWS V14.01,2013-03-02 02:37:00,
2013-03-01 21:40:00,36.1,29.3,29.63,West,264,0.0,3.0,76,0.00,,---,0.00,VWS V14.01,2013-03-02 02:40:00,
2013-03-01 21:42:00,36.4,29.2,29.63,WNW,292,1.0,2.0,75,0.00,,---,0.00,VWS V14.01,2013-03-02 02:42:00,
2013-03-01 21:45:00,36.1,29.3,29.63,NW,313,4.0,6.0,76,0.00,,---,0.00,VWS V14.01,2013-03-02 02:45:00,
2013-03-01 21:47:00,36.4,29.2,29.63,NNW,345,1.0,3.0,75,0.00,,---,0.00,VWS V14.01,2013-03-02 02:47:00,
2013-03-01 21:50:00,36.0,29.2,29.63,NW,306,1.0,5.0,76,0.00,,---,0.00,VWS V14.01,2013-03-02 02:50:00,
2013-03-01 21:52:00,36.4,29.2,29.63,North,10,0.0,4.0,75,0.00,,---,0.00,VWS V14.01,2013-03-02 02:52:00,
2013-03-01 21:55:00,35.9,29.1,29.63,NNW,347,1.0,5.0,76,0.00,,---,0.00,VWS V14.01,2013-03-02 02:55:00,
2013-03-01 21:57:00,36.4,29.2,29.63,NNW,338,1.0,4.0,75,0.00,,---,0.00,VWS V14.01,2013-03-02 02:57:00,
2013-03-01 22:00:00,35.9,29.1,29.63,West,279,2.0,5.0,76,0.00,,---,0.00,VWS V14.01,2013-03-02 03:00:00,
2013-03-01 22:02:00,36.3,29.5,29.63,NW,304,2.0,3.0,76,0.00,,---,0.00,VWS V14.01,2013-03-02 03:02:00,
2013-03-01 22:05:00,35.9,29.1,29.63,NW,309,0.0,9.0,76,0.00,,---,0.00,VWS V14.01,2013-03-02 03:05:00,
2013-03-01 22:07:00,36.3,29.5,29.63,NNE,24,0.0,12.0,76,0.00,,---,0.00,VWS V14.01,2013-03-02 03:07:00,
2013-03-01 22:10:00,35.8,29.0,29.63,NW,319,1.0,3.0,76,0.00,,---,0.00,VWS V14.01,2013-03-02 03:10:00,
2013-03-01 22:13:00,36.2,29.4,29.63,WSW,247,0.0,4.0,76,0.00,,---,0.00,VWS V14.01,2013-03-02 03:13:00,
2013-03-01 22:15:00,35.8,29.0,29.63,WNW,290,2.0,3.0,76,0.00,,---,0.00,VWS V14.01,2013-03-02 03:15:00,
2013-03-01 22:18:00,36.2,29.4,29.63,WNW,284,0.0,6.0,76,0.00,,---,0.00,VWS V14.01,2013-03-02 03:18:00,
2013-03-01 22:20:00,35.7,28.9,29.62,NNW,346,0.0,3.0,76,0.00,,---,0.00,VWS V14.01,2013-03-02 03:20:00,
2013-03-01 22:23:00,36.1,29.3,29.63,WNW,297,1.0,4.0,76,0.00,,---,0.00,VWS V14.01,2013-03-02 03:23:00,
2013-03-01 22:25:00,35.7,28.9,29.63,WNW,282,0.0,5.0,76,0.00,,---,0.00,VWS V14.01,2013-03-02 03:25:00,
2013-03-01 22:28:00,36.1,29.3,29.63,WNW,298,1.0,2.0,76,0.00,,---,0.00,VWS V14.01,2013-03-02 03:28:00,
2013-03-01 22:30:00,35.6,28.8,29.63,WNW,296,2.0,5.0,76,0.00,,---,0.00,VWS V14.01,2013-03-02 03:30:00,
2013-03-01 22:33:00,36.1,29.3,29.63,NNW,328,0.0,3.0,76,0.00,,---,0.00,VWS V14.01,2013-03-02 03:33:00,
2013-03-01 22:35:00,35.6,29.1,29.63,NNW,338,0.0,3.0,77,0.00,,---,0.00,VWS V14.01,2013-03-02 03:35:00,
2013-03-01 22:38:00,36.1,29.3,29.63,West,264,0.0,3.0,76,0.00,,---,0.00,VWS V14.01,2013-03-02 03:38:00,
2013-03-01 22:40:00,35.5,28.7,29.63,NW,315,0.0,6.0,76,0.00,,---,0.00,VWS V14.01,2013-03-02 03:40:00,
2013-03-01 22:43:00,36.0,29.2,29.63,NNW,331,4.0,5.0,76,0.00,,---,0.00,VWS V14.01,2013-03-02 03:43:00,
2013-03-01 22:45:00,35.6,28.8,29.63,NE,36,0.0,5.0,76,0.00,,---,0.00,VWS V14.01,2013-03-02 03:45:00,
2013-03-01 22:48:00,36.0,29.2,29.63,NW,306,0.0,1.0,76,0.00,,---,0.00,VWS V14.01,2013-03-02 03:48:00,
2013-03-01 22:50:00,35.5,29.0,29.63,WNW,302,0.0,5.0,77,0.00,,---,0.00,VWS V14.01,2013-03-02 03:50:00,
2013-03-01 22:53:00,35.9,29.1,29.63,WNW,293,2.0,4.0,76,0.00,,---,0.00,VWS V14.01,2013-03-02 03:53:00,
2013-03-01 22:55:00,35.5,29.0,29.63,West,265,2.0,3.0,77,0.00,,---,0.00,VWS V14.01,2013-03-02 03:55:00,
2013-03-01 22:58:00,35.9,29.1,29.63,West,279,0.0,2.0,76,0.00,,---,0.00,VWS V14.01,2013-03-02 03:58:00,
2013-03-01 23:00:00,35.5,28.7,29.63,West,261,0.0,6.0,76,0.00,,---,0.00,VWS V14.01,2013-03-02 04:00:00,
2013-03-01 23:03:00,35.9,29.1,29.63,NNW,346,2.0,2.0,76,0.00,,---,0.00,VWS V14.01,2013-03-02 04:03:00,
2013-03-01 23:05:00,35.5,29.0,29.63,West,261,1.0,1.0,77,0.00,,---,0.00,VWS V14.01,2013-03-02 04:05:00,
2013-03-01 23:08:00,35.8,29.0,29.63,NW,319,1.0,2.0,76,0.00,,---,0.00,VWS V14.01,2013-03-02 04:08:00,
2013-03-01 23:10:00,35.5,29.0,29.63,West,273,3.0,7.0,77,0.00,,---,0.00,VWS V14.01,2013-03-02 04:10:00,
2013-03-01 23:14:00,35.8,29.0,29.63,WNW,290,0.0,2.0,76,0.00,,---,0.00,VWS V14.01,2013-03-02 04:14:00,
2013-03-01 23:15:00,35.4,28.9,29.63,NW,318,0.0,4.0,77,0.00,,---,0.00,VWS V14.01,2013-03-02 04:15:00,
2013-03-01 23:19:00,35.7,28.9,29.63,NNW,346,1.0,1.0,76,0.00,,---,0.00,VWS V14.01,2013-03-02 04:19:00,
2013-03-01 23:20:00,35.4,28.9,29.63,NW,318,0.0,2.0,77,0.00,,---,0.00,VWS V14.01,2013-03-02 04:20:00,
2013-03-01 23:24:00,35.7,28.9,29.63,WNW,282,1.0,1.0,76,0.00,,---,0.00,VWS V14.01,2013-03-02 04:24:00,
2013-03-01 23:25:00,35.3,29.1,29.62,NW,312,0.0,4.0,78,0.00,,---,0.00,VWS V14.01,2013-03-02 04:25:00,
2013-03-01 23:29:00,35.6,28.8,29.63,WNW,296,0.0,2.0,76,0.00,,---,0.00,VWS V14.01,2013-03-02 04:29:00,
2013-03-01 23:30:00,35.2,29.0,29.62,NW,312,0.0,4.0,78,0.00,,---,0.00,VWS V14.01,2013-03-02 04:30:00,
2013-03-01 23:34:00,35.6,29.1,29.63,NW,304,3.0,4.0,77,0.00,,---,0.00,VWS V14.01,2013-03-02 04:34:00,
2013-03-01 23:35:00,35.2,29.0,29.63,NW,320,0.0,4.0,78,0.00,,---,0.00,VWS V14.01,2013-03-02 04:35:00,
2013-03-01 23:39:00,35.5,28.7,29.63,NNW,342,1.0,3.0,76,0.00,,---,0.00,VWS V14.01,2013-03-02 04:39:00,
2013-03-01 23:40:00,35.1,28.9,29.62,West,271,2.0,3.0,78,0.00,,---,0.00,VWS V14.01,2013-03-02 04:40:00,
2013-03-01 23:44:00,35.6,28.8,29.63,NE,36,0.0,1.0,76,0.00,,---,0.00,VWS V14.01,2013-03-02 04:44:00,
2013-03-01 23:45:00,35.0,29.2,29.63,NW,323,0.0,3.0,79,0.00,,---,0.00,VWS V14.01,2013-03-02 04:45:00,
2013-03-01 23:49:00,35.5,29.0,29.63,WNW,302,0.0,0.0,77,0.00,,---,0.00,VWS V14.01,2013-03-02 04:49:00,
2013-03-01 23:50:00,34.9,29.1,29.63,NW,316,0.0,2.0,79,0.00,,---,0.00,VWS V14.01,2013-03-02 04:50:00,
2013-03-01 23:54:00,35.5,28.7,29.63,West,277,1.0,3.0,76,0.00,,---,0.00,VWS V14.01,2013-03-02 04:54:00,
2013-03-01 23:55:00,34.9,28.8,29.62,NNW,338,0.0,5.0,78,0.00,,---,0.00,VWS V14.01,2013-03-02 04:55:00,
2013-03-01 23:59:00,35.5,28.7,29.63,West,261,0.0,1.0,76,0.00,,---,0.00,VWS V14.01,2013-03-02 04:59:00,